Regional Weather Roundup
Issued by NWS Huntsville, AL

Home | Current Version | Previous Version | Text Only | Print | Product List | Glossary On
Versions: 1 2 3 4 5 6 7 8 9 10 11 12 13 14 15 16 17 18 19 20 21 22 23 24 25 26 27 28 29 30 31 32 33 34 35 36 37 38 39 40 41 42 43 44 45 46 47 48 49 50
000
ASUS44 KHUN 052210
RWRHUN

WEATHER ROUNDUP FOR THE TENNESSEE VALLEY
NATIONAL WEATHER SERVICE HUNTSVILLE AL
400 PM CST THU MAR 05 2015

ALZ001>004-052300-
NORTHWEST ALABAMA

CITY           SKY/WX    TMP DP  RH WIND       PRES   REMARKS
SHOALS AIRPORT PTSUNNY   29  19  66 N9        30.43R WCI  20
SHOALS TVA RES   N/A     28 N/A N/A MISG        N/A
$$

ALZ005>007-016-052300-
NORTH CENTRAL ALABAMA

CITY           SKY/WX    TMP DP  RH WIND       PRES   REMARKS
DECATUR AP     CLOUDY    26  21  81 N16G24    30.40R WCI  14
HUNTSVILLE AP  CLOUDY    28  20  71 N18G26    30.39R WCI  15
HUN NWS/UAH      N/A     25  19  78 N14         N/A  WCI  13
MERIDIANVILLE  CLOUDY    27  21  80 N14       30.39R WCI  15
REDSTONE ARSN  CLOUDY    25  23  93 N16G22    30.38R WCI  12
VINEMONT AP    CLOUDY    25  21  87 N10G20    30.36R WCI  15
$$

ALZ008>010-052300-
NORTHEAST ALABAMA

CITY           SKY/WX    TMP DP  RH WIND       PRES   REMARKS
ALBERTVILLE    CLOUDY    28  28 100 N10G17    30.30R WCI  19
FORT PAYNE     CLOUDY    30  23  74 N8        30.30R WCI  23
SCOTTSBORO AP  CLOUDY    28  23  80 N14G23    30.37R WCI  17
SCOTTSBORO HCN   N/A     28 N/A N/A MISG        N/A
VALLEY HEAD      N/A     30 N/A N/A MISG        N/A
$$

TNZ076-096-097-052300-
SOUTHEASTERN MIDDLE TENNESSEE

CITY           SKY/WX    TMP DP  RH WIND       PRES   REMARKS
TULLAHOMA      CLOUDY    21  18  86 N12         N/A  WCI   9
WINCHESTER     CLOUDY    21  19  93 N14       30.38R WCI   8
$$

...SURROUNDING SITES...

CITY           SKY/WX    TMP DP  RH WIND       PRES   REMARKS
ATLANTA        CLOUDY    40  34  79 NW20G35   30.15R WCI  30
ANNISTON       CLOUDY    31  26  82 N9        30.29R WCI  23
BIRMINGHAM     CLOUDY    30  25  81 N17       30.33F WCI  18
CHATTANOOGA    CLOUDY    31  23  72 N16       30.33R WCI  20
CORINTH        MIX PCPN  32  12  43 N17G23    30.45R WCI  21
DALTON         CLOUDY    32  30  93 N6G12     30.26R WCI  26
GADSDEN        CLOUDY    30  25  80 N12G20    30.30S WCI  21
GOLDEN TRNGL   MOSUNNY  N/A N/A N/A N14G23    30.41R
HALEYVILLE       N/A     23  21  92 N14G22    30.39S WCI  11
JACKSON TN     SUNNY     27  12  53 N13       30.50R WCI  16
LEWISBURG      PTSUNNY   25  17  71 N8        30.42R WCI  16
MEMPHIS        MOSUNNY   30  11  45 N13       30.52R WCI  20
MURFREESBORO   PTSUNNY   25  18  74 N12       30.43R WCI  14
NASHVILLE      PTSUNNY   27  15  61 N14       30.46R WCI  16
OXFORD MS      FAIR      32  16  51 N16G23    30.49R WCI  21
ROME           CLOUDY    33  28  81 N13G18    30.27R WCI  24
SAVANNAH       SUNNY     28  14  54 N13       30.46R WCI  18
TUPELO         MOSUNNY   32  16  51 NE16      30.44R WCI  21
TUSCALOOSA     CLOUDY    33  26  75 N14G28    30.38R WCI  23
$$

...GULF COAST WEATHER...

CITY           SKY/WX    TMP DP  RH WIND       PRES   REMARKS
GULFPORT       CLOUDY    39  32  76 N23G30    30.27R WCI  28
PASCAGOULA     CLOUDY    42  34  73 N20G31    30.24R
MOBILE         CLOUDY    40  32  73 N24G30    30.25R WCI  29
GULF SHORES    CLOUDY    46  38  74 N13G24    30.19R
PENSACOLA      CLOUDY    46  38  73 N20G26    30.18R
DESTIN         CLOUDY    58  47  66 N18G25    30.12R
PANAMA CITY    PTSUNNY   60  55  86 N9        30.07S
APPALACHICOLA  CLOUDY    70  64  81 N9G23     30.06R
$$



USA.gov is the U.S. government's official web portal to all federal, state and local government web resources and services.